Regional Weather Roundup
Issued by NWS Northern Indiana

Home | Current Version | Previous Version | Graphics & Text | Print | Product List | Glossary On
Versions: 1 2 3 4 5 6 7 8 9 10 11 12 13 14 15 16 17 18 19 20 21 22 23 24 25 26 27 28 29 30 31 32 33 34 35 36 37 38 39 40 41 42 43 44 45 46 47 48 49 50
000
ASUS43 KIWX 050610
RWRIWX

KIWX WEATHER ROUNDUP
NATIONAL WEATHER SERVICE NORTHERN INDIANA
200 AM EDT THU MAY 05 2016

NOTE: "FAIR" INDICATES FEW OR NO CLOUDS BELOW 12,000 FEET WITH NO
SIGNIFICANT WEATHER AND/OR OBSTRUCTIONS TO VISIBILITY.

* THESE STATIONS ARE NOT UNDER NWS QUALITY CONTROL. THEY ALSO MAY NOT
  REPORT WEATHER SUCH AS PRECIPITATION OR FOG.

INZ001>027-050700-
NORTHERN INDIANA

CITY           SKY/WX    TMP DP  RH WIND       PRES   REMARKS
GARY*          CLOUDY    43  41  91 N25G37    29.87R
VALPARAISO     CLOUDY    40  37  89 N22G33    29.81S
6HR MIN TEMP:  40; 6HR MAX TEMP:  42; 6HR PCP:  0.07;

MICHIGAN CITY* CLOUDY    39  39 100 N24G30    29.83R
LAPORTE*       CLOUDY    42  42 100 N23G33    29.80R
6HR MIN TEMP:  41; 6HR MAX TEMP:  42; 6HR PCP:  0.07;

KNOX*          CLOUDY    39  36  87 N17G32    29.78S
SOUTH BEND     CLOUDY    41  39  93 N20       29.78R
6HR MIN TEMP:  38; 6HR MAX TEMP:  41; 6HR PCP:  0.30;

GOSHEN         CLOUDY    44  41  89 NE12      29.75R
6HR MIN TEMP:  38; 6HR MAX TEMP:  44; 6HR PCP:  0.05;

MONTICELLO*    LGT RAIN  40  37  87 N20G25    29.78R
6HR MIN TEMP:  40; 6HR MAX TEMP:  45;

LOGANSPORT*    CLOUDY    41  37  87 NW14      29.77S FOG
ROCHESTER*     CLOUDY    43  43 100 N14       29.75S
WARSAW*        DRIZZLE   41  41 100 N8        29.74R
ANGOLA*        CLOUDY    39  37  93 NE5       29.75R
FORT WAYNE     CLOUDY    40  38  93 N3        29.75R
6HR MIN TEMP:  39; 6HR MAX TEMP:  42; 6HR PCP: TRACE;

HUNTINGTON*    CLOUDY    40  38  96 N3        29.73S FOG
PERU/GRISSOM   LGT RAIN  41  41 100 N12       29.73S
6HR MIN TEMP:  40; 6HR MAX TEMP:  43; 6HR PCP:  0.14;

MARION*        CLOUDY    40  39  95 N7        29.74S FOG
6HR MIN TEMP:  -1; 6HR MAX TEMP:  82;


$$
INZ028>050-050700-
CENTRAL INDIANA

CITY           SKY/WX    TMP DP  RH WIND       PRES   REMARKS
LAFAYETTE      CLOUDY    42  36  79 NW17G23   29.79F
6HR MIN TEMP:  42; 6HR MAX TEMP:  46; 6HR PCP: TRACE;

KOKOMO*        CLOUDY    41  36  81 NW13      29.75R
6HR MIN TEMP:  39; 6HR MAX TEMP:  45; 6HR PCP:  0.11;

MUNCIE*        CLOUDY    41  38  89 NW9       29.74S FOG
6HR MIN TEMP:  41; 6HR MAX TEMP:  48; 6HR PCP:  0.02;

INDIANAPOLIS   LGT RAIN  43  37  79 NW15G24   29.75F
6HR MIN TEMP:  43; 6HR MAX TEMP:  48; 6HR PCP:  0.01;


$$
MIZ043>046-050>051-056>058-064>065-071>073-077>080-050700-
SOUTHWEST LOWER MICHIGAN

CITY           SKY/WX    TMP DP  RH WIND       PRES   REMARKS
BATTLE CREEK   CLOUDY    45  43  93 N5        29.78R
6HR MIN TEMP:  42; 6HR MAX TEMP:  46; 6HR PCP:  0.08;

BENTON HARBOR  CLOUDY    43  39  86 N13G21    29.81R
6HR MIN TEMP:  41; 6HR MAX TEMP:  43; 6HR PCP:  0.19;

COLDWATER*     LGT RAIN  42  41  97 NE3       29.76R
6HR MIN TEMP:  40; 6HR MAX TEMP:  42;

HILLSDALE*     LGT RAIN  42  40  93 CALM      29.74S
6HR MIN TEMP:  39; 6HR MAX TEMP:  42;

HOLLAND        CLOUDY   N/A N/A N/A N9        29.84R
                                      6HR PCP:  0.01;

GRAND RAPIDS   CLOUDY    46  43  89 N14       29.82R
6HR MIN TEMP:  44; 6HR MAX TEMP:  46; 6HR PCP: TRACE;

KALAMAZOO      LGT RAIN  46  43  89 E3        29.78R
6HR MIN TEMP:  41; 6HR MAX TEMP:  46; 6HR PCP:  0.20;

STURGIS*       CLOUDY    42  40  96 NE6       29.76R
6HR MIN TEMP:  38; 6HR MAX TEMP:  43; 6HR PCP:  0.02;

THREE RIVERS*  DRIZZLE   45  42  89 N5        29.77R
6HR MIN TEMP:  41; 6HR MAX TEMP:  46;


$$
OHZ001>008-015>018-024>025-050700-
NORTHWEST OHIO

CITY           SKY/WX    TMP DP  RH WIND       PRES   REMARKS
WAUSEON*         N/A     43 N/A N/A NW6       29.75R
DEFIANCE       MOCLDY    42  37  82 N3        29.75R
6HR MIN TEMP:  42; 6HR MAX TEMP:  45;

FINDLAY        CLOUDY    44  37  76 NW7       29.73R
6HR MIN TEMP:  44; 6HR MAX TEMP:  48;

TOLEDO EXPRESS CLOUDY    43  39  86 NW6       29.73S
6HR MIN TEMP:  43; 6HR MAX TEMP:  47;

TOLEDO METCALF LGT RAIN  45  42  89 NW8       29.74R
6HR MIN TEMP:  45; 6HR MAX TEMP:  49; 6HR PCP: TRACE;

LIMA           CLOUDY    41  38  89 NW5       29.73S
6HR MIN TEMP:  41; 6HR MAX TEMP:  46;


$$
AND FOR LAKE MICHIGAN COASTAL AND OPEN LAKE BUOY OBSERVATIONS

STATION/POSITION TEMP    WIND        PRES    VSBY  WAVE
                 AIR SEA DIR/SP/G                  HT/PER
                 (F)     (DEG/KT/KT) (MB)    (MI)  (FT/S)
CALUMET HARBOR    43     340/ 21/ 32 1011.0R
MICHIGAN CITY     41     330/ 32/ 35   N/A
BURNS HARBOR      42     360/ 27     1010.5R
SAINT JOSEPH      43     350/ 18/ 29 1009.5F
SOUTH LAKE BUOY   41 40   20/ 25/ 31 1010.8R        10/ 8
4 MI NW BRIDGMAN  43 47                N/A          10/ 8

$$
&&




USA.gov is the U.S. government's official web portal to all federal, state and local government web resources and services.